Regional Weather Roundup
Issued by NWS

Home | Current Version | Previous Version | Graphics & Text | Print | Product List | Glossary Off
Versions: 1 2 3 4 5 6 7 8 9 10 11 12 13 14 15 16 17 18 19 20 21 22 23 24 25 26 27 28 29 30 31 32 33 34 35 36 37 38 39 40 41 42 43 44 45 46 47 48 49 50

000
ASUS43 KTOP 240108
RWRKS

WEATHER ROUNDUP FOR KANSAS
NATIONAL WEATHER SERVICE GOODLAND KS
800 PM CDT THU OCT 23 2014

NOTE:  "FAIR" INDICATES FEW OR NO CLOUDS BELOW 12,000 FEET WITH NO
SIGNIFICANT WEATHER AND/OR OBSTRUCTIONS TO VISIBILITY.

KSZ001>006-013>018-027>032-041>047-240200-
NORTHWEST KANSAS

CITY           SKY/WX    TMP DP  RH WIND       PRES   REMARKS
GOODLAND       CLEAR     58  52  80 S12       30.08R
HAYS           CLOUDY    64  55  72 S6        30.06R
HILL CITY      MOCLDY    62  56  80 S3        30.05R
RUSSELL        MOCLDY    62  57  83 S8        30.04R
$$

KSZ061>065-074>080-084>089-240200-
SOUTHWEST KANSAS

CITY           SKY/WX    TMP DP  RH WIND       PRES   REMARKS
DODGE CITY     PTCLDY    62  56  80 SE8       30.08R
ELKHART          N/A     64  54  70 E7          N/A
GARDEN CITY    CLEAR     62  54  74 CALM      30.09R
GREAT BEND     MOCLDY    63  55  77 S7        30.06R
LIBERAL        MOCLDY    72  55  56 E8        30.10R
PRATT          PTCLDY    64  57  77 S6        30.08R
$$

KSZ066>073-081>083-090>101-240200-
SOUTHEAST KANSAS

CITY           SKY/WX    TMP DP  RH WIND       PRES   REMARKS
CHANUTE        CLOUDY    62  58  86 S10       30.09R
COFFEYVILLE    CLEAR     59  57  93 SE7       30.10R
HUTCHINSON     CLEAR     65  58  78 S6        30.06R
MEDICINE LODGE   N/A     67  60  78 E6        30.06R
NEWTON         MOCLDY    64  55  72 SE6       30.09R
PARSONS        CLEAR     60  58  92 S5        30.11R
WICHITA INTL   MOCLDY    66  59  78 SE7       30.06R
WICHITA JABRA  PTCLDY    63  59  87 S6        30.06R
WICHITA MCCONL PTCLDY    66  63  90 SE3       30.07R
WINFIELD       CLOUDY    68  61  78 SE6       30.07R
$$

KSZ007>012-019>026-033>040-048>060-102>105-240200-
NORTHEAST KANSAS

CITY           SKY/WX    TMP DP  RH WIND       PRES   REMARKS
CONCORDIA      MOCLDY    63  55  75 CALM      30.04R
EMPORIA        PTCLDY    60  59  96 S8        30.08R
LAWRENCE       MOCLDY    59  57  93 S6        30.08R FOG
MANHATTAN      PTCLDY    62  58  86 SW5       30.05R
MARYSVILLE     PTCLDY    61  54  77 CALM      30.04R
OLATHE IND     CLOUDY    60  58  92 S5        30.09R
OLATHE EXE     MOCLDY    61  60  97 S6        30.08R
SALINA         PTCLDY    63  59  87 S8        30.05R
TOPEKA BILLARD PTCLDY    62  61  96 CALM      30.07R
TOPEKA FORBES  CLEAR     60  58  92 SE6       30.07R
$$



USA.gov is the U.S. government's official web portal to all federal, state and local government web resources and services.